Location: Black Skies Observatory
(44.7549°N, 79.7179°W)
Time: 14:59:42
(UTC-05:00)

Envisat - Pass Details

Date: 08 November 2020
Orbit: 764 x 766 km, 98.1° (Epoch: 01 December)

Event Time Altitude Azimuth Distance (km) Brightness Sun altitude
Rises 17:29:44 0° 171° (S) 3,218 6.3 -6.2°
Reaches altitude 10° 17:32:03 10° 173° (S) 2,296 5.6 -6.6°
Maximum altitude 17:37:06 72° 257° (WSW) 806 3.4 -7.4°
Drops below altitude 10° 17:42:11 10° 343° (NNW) 2,312 5.5 -8.3°
Sets 17:44:31 0° 345° (NNW) 3,243 6.2 -8.7°
